CAPE
0 0 0 0 0 0 0 0 0 0 0 0 0 0 0 0 0 0 0 0 0 0 0 0 0 0 0 0 0 0 0 0 0 0 0 0 0 0 0 0 0 0 0
0 0 0 0 0 0 0 0 0 0 0 0 0 0 0 0 0 0 0 0 0 0 0 0 0 0 0 0 0 0 0 0 0 0 0 0 0 0 0 0 0 0 0
0 0 0 0 0 0 0 0 0 0 0 0 0 0 0 0 0 0 0 0 0 0 0 0 0 0 0 0 0 0 0 0 0 0 0 0 0 0 0 0 0 0 0
0 0 0 0 0 0 0 0 0 0 0 0 0 0 0 0 0 0 0 0 0 0 0 0 0 0 0 0 0 0 0 0 0 0 0 0 0 0 0 0 0 0 0
0 0 0 0 0 0 0 0 0 0 0 0 0 0 0 0 0 0 0 0 0 0 0 0 0 0 0 0 0 0 0 0 0 0 0 0 0 0 0 0 0 0 0
0 0 0 0 0 0 0 0 0 0 0 0 0 0 0 0 0 0 0 0 0 0 0 0 0 0 0 0 0 0 0 0 0 0 0 0 0 0 1 2 3 2 0
0 0 0 0 0 0 0 0 0 0 0 0 0 0 0 0 0 0 0 0 0 0 0 0 0 0 0 0 0 0 0 0 0 0 0 0 0 0 0 0 0 0 0
0 0 0 0 0 0 0 0 0 0 0 0 0 0 0 0 0 0 0 0 0 0 0 0 0 0 0 0 0 0 0 0 0 0 0 0 1 0 0 1 3 3 1
0 0 0 0 0 0 0 0 0 0 0 0 0 0 0 0 0 0 0 0 0 0 0 0 0 0 0 0 0 0 0 0 0 0 0 0 4 4 0 0 0 0 0
0 0 0 0 0 0 0 0 0 0 0 0 0 0 0 0 0 0 0 0 0 0 0 0 0 0 0 0 0 0 0 0 0 0 0 0 0 0 0 0 0 0 2
0 0 0 0 0 0 0 0 0 0 0 0 0 0 0 0 0 0 0 0 0 0 0 0 0 0 0 0 0 0 0 0 0 0 0 0 0 0 0 0 1 0 2
0 0 0 0 0 0 0 0 0 0 0 0 0 0 0 0 0 0 0 0 0 0 0 0 0 0 0 0 0 0 0 0 0 0 0 0 0 0 0 0 2 3 3
0 0 0 0 0 0 0 0 0 0 0 0 0 0 0 0 0 0 0 0 0 0 0 0 0 0 0 0 0 0 0 0 0 0 0 0 0 0 0 0 0 0 0
0 0 0 0 0 0 0 0 0 0 0 0 0 0 0 0 0 0 0 0 0 0 0 0 0 0 0 0 0 0 0 0 0 0 0 0 0 0 0 0 0 0 0
0 0 0 0 2 2 0 0 0 0 0 0 0 0 0 0 0 0 0 0 0 0 0 0 0 0 0 0 0 0 0 0 0 0 0 0 0 0 0 0 0 0 0
0 0 0 0 0 0 0 0 0 0 0 0 0 0 0 0 0 0 0 1 1 0 0 0 0 0 0 0 0 0 0 0 0 0 0 0 0 0 0 0 0 0 0
0 0 0 0 0 0 0 0 0 0 0 0 0 0 0 0 0 1 0 0 0 0 0 0 0 0 0 0 0 0 0 0 0 0 0 0 0 0 0 0 0 0 0
0 0 0 0 0 0 0 0 0 0 0 0 1 0 0 1 2 1 0 1 0 0 0 0 0 0 0 0 0 0 0 0 0 0 0 0 0 0 0 0 0 0 0
0 0 0 0 0 0 0 0 0 0 0 0 0 0 0 2 1 2 0 0 0 0 0 0 0 0 0 0 0 0 0 0 0 0 0 0 0 0 0 0 0 0 0
0 0 0 0 0 0 0 0 0 0 0 0 0 0 0 0 0 0 0 0 0 0 0 0 0 0 0 0 0 0 0 0 0 0 0 0 0 0 0 0 0 0 0
0 0 0 0 0 0 0 0 0 0 0 0 0 0 0 0 0 0 0 0 0 0 0 0 0 0 0 0 0 0 0 0 0 0 0 0 0 0 0 0 0 0 0
0 0 0 0 0 0 0 0 0 0 0 0 0 0 0 0 0 0 0 0 0 0 0 0 0 0 0 0 0 0 0 0 0 0 0 0 0 0 0 0 0 0 0
0 0 0 0 0 0 0 0 0 0 0 0 0 0 0 0 0 0 0 0 0 0 0 0 0 0 0 0 0 0 0 0 0 0 0 0 0 0 0 0 0 0 0
0 0 0 0 0 0 0 0 0 0 0 0 0 0 0 0 0 0 0 0 0 0 0 0 0 0 0 0 0 0 0 0 0 0 0 0 0 0 0 0 0 0 0
0 0 0 0 0 0 0 0 0 0 0 0 0 0 0 0 0 0 0 0 0 0 0 0 0 0 0 0 0 0 0 0 0 0 0 0 0 0 0 0 0 0 0
0 0 0 0 0 0 0 0 0 0 0 0 0 0 0 0 0 0 0 0 0 0 0 0 0 0 0 0 0 0 0 0 0 0 0 0 0 0 0 0 0 0 0
CIN
-0 -0 -0 -0 -0 -0 -0 -0 -0 -0 -0 -0 -0 -0 -0 -0 -0 -0 -0 -0 -0 -0 -0 -0 -0 -0 -0 -0 -0 -0 -0 -0 -0 -0 -0 -0 -0 -0 -0 -0 -0 -0 -0
-0 -0 -0 -0 -0 -0 -0 -0 -0 -0 -0 -0 -0 -0 -0 -0 -0 -0 -0 -0 -0 -0 -0 -0 -0 -0 -0 -0 -0 -0 -0 -0 -0 -0 -0 -0 -0 -0 -0 -0 -0 -0 -0
-0 -0 -0 -0 -0 -0 -0 -0 -0 -0 -0 -0 -0 -0 -0 -0 -0 -0 -0 -0 -0 -0 -0 -0 -0 -0 -0 -0 -0 -0 -0 -0 -0 -0 -0 -0 -0 -0 -0 -0 -0 -0 -0
-0 -0 -0 -0 -0 -0 -0 -0 -0 -0 -0 -0 -0 -0 -0 -0 -0 -0 -0 -0 -0 -0 -0 -0 -0 -0 -0 -0 -0 -0 -0 -0 -0 -0 -0 -0 -0 -0 -0 -0 -0 -0 -0
-0 -0 -0 -0 -0 -0 -0 -0 -0 -0 -0 -0 -0 -0 -0 -0 -0 -0 -0 -0 -0 -0 -0 -0 -0 -0 -0 -0 -0 -0 -0 -0 -0 -0 -0 -0 -0 -0 -0 -0 -0 -0 -0
-0 -0 -0 -0 -0 -0 -0 -0 -0 -0 -0 -0 -0 -0 -0 -0 -0 -0 -0 -0 -0 -0 -0 -0 -0 -0 -0 -0 -0 -0 -0 -0 -0 -0 -0 -1 -0 -0 -1 -0 -0 -0 -0
-0 -0 -0 -0 -0 -0 -0 -0 -0 -0 -0 -0 -0 -0 -0 -0 -0 -0 -0 -0 -0 -0 -0 -0 -0 -0 -0 -0 -0 -0 -0 -0 -0 -0 -0 -0 -0 -0 -0 -0 -0 -0 -0
-0 -0 -0 -0 -0 -0 -0 -0 -0 -0 -0 -0 -0 -0 -0 -0 -0 -0 -0 -0 -0 -0 -0 -0 -0 -0 -0 -0 -0 -0 -0 -0 -0 -0 -0 -0 -1 -1 -0 -3 -4 -3 -2
-0 -0 -0 -0 -0 -0 -0 -0 -0 -0 -0 -0 -0 -0 -0 -0 -0 -0 -0 -0 -0 -0 -0 -0 -0 -0 -0 -0 -0 -0 -0 -0 -0 -0 -0 -0 -2 -3 -0 -0 -0 -0 -0
-0 -0 -0 -0 -0 -0 -0 -0 -0 -0 -0 -0 -0 -0 -0 -0 -0 -0 -0 -0 -0 -0 -0 -0 -0 -0 -0 -0 -0 -0 -0 -0 -0 -0 -0 -0 -0 -0 -0 -0 -0 -0 -0
-0 -0 -0 -0 -0 -0 -0 -0 -0 -0 -0 -0 -0 -0 -0 -0 -0 -0 -0 -0 -0 -0 -0 -0 -0 -0 -0 -0 -0 -0 -0 -0 -1 -0 -0 -0 -0 -0 -0 -0 -0 -0 -0
-0 -0 -0 -0 -0 -0 -0 -0 -0 -0 -0 -0 -0 -0 -0 -0 -0 -0 -0 -0 -0 -0 -0 -0 -0 -0 -0 -0 -0 -0 -0 -0 -0 -0 -0 -0 -0 -0 -0 -0 -0 -0 -0
-0 -0 -0 -0 -0 -0 -0 -0 -0 -0 -0 -0 -0 -0 -0 -0 -0 -0 -0 -0 -0 -0 -0 -0 -0 -0 -0 -0 -0 -0 -0 -0 -0 -0 -0 -0 -0 -0 -0 -0 -0 -1 -0
-0 -0 -0 -0 -0 -0 -0 -0 -0 -0 -0 -0 -0 -0 -0 -0 -0 -0 -0 -0 -0 -0 -0 -0 -0 -0 -0 -0 -0 -0 -0 -0 -0 -0 -0 -0 -0 -0 -0 -0 -0 -0 -1
-0 -0 -0 -0 -0 -0 -0 -0 -0 -0 -0 -0 -0 -0 -0 -0 -0 -0 -0 -0 -0 -0 -0 -0 -0 -0 -0 -0 -0 -0 -0 -0 -0 -0 -0 -0 -0 -0 -0 -0 -0 -0 -0
-0 -0 -0 -0 -0 -0 -0 -0 -0 -0 -0 -0 -0 -0 -0 -0 -0 -0 -0 -0 -0 -0 -0 -0 -0 -0 -0 -0 -0 -0 -0 -0 -0 -0 -0 -0 -0 -0 -0 -0 -0 -0 -0
-0 -0 -0 -0 -0 -0 -0 -0 -0 -0 -0 -0 -1 -0 -0 -0 -0 -1 -2 -1 -1 -0 -0 -0 -0 -0 -0 -0 -0 -0 -0 -0 -0 -0 -0 -0 -0 -0 -0 -0 -0 -0 -0
-0 -0 -0 -0 -0 -0 -0 -0 -0 -0 -0 -0 -1 -0 -0 -1 -1 -2 -0 -0 -0 -0 -0 -0 -0 -0 -0 -0 -0 -0 -0 -0 -0 -0 -0 -0 -0 -0 -0 -0 -0 -0 -0
-0 -0 -0 -0 -0 -0 -0 -0 -0 -0 -0 -0 -0 -0 -0 -1 -1 -1 -0 -0 -0 -0 -0 -0 -0 -0 -0 -0 -0 -0 -0 -0 -0 -0 -0 -0 -0 -0 -0 -0 -0 -0 -0
-0 -0 -0 -0 -0 -0 -0 -0 -0 -0 -0 -0 -0 -0 -0 -0 -0 -0 -0 -0 -0 -0 -0 -0 -0 -0 -0 -0 -0 -0 -0 -0 -0 -0 -0 -0 -0 -0 -0 -0 -0 -0 -0
-0 -0 -0 -0 -0 -0 -0 -0 -0 -0 -0 -0 -0 -0 -0 -0 -0 -0 -0 -0 -0 -0 -0 -0 -0 -0 -0 -0 -0 -0 -0 -0 -0 -0 -0 -0 -0 -0 -0 -0 -0 -0 -0
-0 -0 -0 -0 -0 -0 -0 -0 -0 -0 -0 -0 -0 -0 -0 -0 -0 -0 -0 -0 -0 -0 -0 -0 -0 -0 -0 -0 -0 -0 -0 -0 -0 -0 -0 -0 -0 -0 -0 -0 -0 -0 -0
-0 -0 -0 -0 -0 -0 -0 -0 -0 -0 -0 -0 -0 -0 -0 -0 -0 -0 -0 -0 -0 -0 -0 -0 -0 -0 -0 -0 -0 -0 -0 -0 -0 -0 -0 -0 -0 -0 -0 -0 -0 -0 -0
-0 -0 -0 -0 -0 -0 -0 -0 -0 -0 -0 -0 -0 -0 -0 -0 -0 -0 -0 -0 -0 -0 -0 -0 -0 -0 -0 -0 -0 -0 -0 -0 -0 -0 -0 -0 -0 -0 -0 -0 -0 -0 -0
-0 -0 -0 -0 -0 -0 -0 -0 -0 -0 -0 -0 -0 -0 -0 -0 -0 -0 -0 -0 -0 -0 -0 -0 -0 -0 -0 -0 -0 -0 -0 -0 -0 -0 -0 -0 -0 -0 -0 -0 -0 -0 -0
-0 -0 -0 -0 -0 -0 -0 -0 -0 -0 -0 -0 -0 -0 -0 -0 -0 -0 -0 -0 -0 -0 -0 -0 -0 -0 -0 -0 -0 -0 -0 -0 -0 -0 -0 -0 -0 -0 -0 -0 -0 -0 -0
Wind_Speed
28 28 29 29 29 29 29 28 26 24 22 21 21 20 20 20 20 21 22 23 25 25 25 25 27 29 31 32 33 34 36 38 48 59 47 49 51 53 53 52 52 53 54
28 29 31 31 30 30 30 29 26 26 24 23 21 21 21 21 21 22 22 23 23 25 25 26 28 29 31 31 34 36 38 39 46 60 56 53 53 53 55 57 55 53 55
31 32 32 31 29 29 29 28 27 26 24 23 23 22 22 21 21 21 22 23 24 24 25 26 28 28 31 32 34 38 39 41 43 49 62 55 54 53 57 55 56 56 55
32 31 31 31 29 29 28 26 25 24 24 24 24 23 23 22 22 22 22 24 24 24 25 26 27 28 33 35 36 38 39 42 44 48 53 59 57 55 56 61 64 58 61
33 32 33 31 30 28 26 25 23 23 24 22 22 23 23 23 22 22 22 22 22 22 23 24 26 28 29 32 36 39 39 42 44 47 52 56 58 59 59 60 65 66 64
33 33 32 30 30 28 27 26 24 24 23 22 23 22 22 22 21 20 20 20 20 21 24 24 26 28 31 32 34 35 37 41 45 47 50 54 59 58 60 63 66 68 75
36 36 33 30 29 27 27 26 25 24 23 23 23 22 22 21 19 18 18 19 19 21 23 26 27 26 27 31 34 36 38 40 42 44 49 50 56 57 58 63 62 63 67
35 35 33 32 31 27 26 26 24 23 23 22 22 21 20 20 18 17 15 14 16 18 20 22 25 27 28 31 34 37 39 38 39 41 44 48 50 51 51 56 60 59 59
37 36 33 29 28 27 26 24 23 23 22 22 21 21 21 19 16 15 13 14 16 17 19 21 23 25 28 32 35 39 41 40 40 41 45 48 49 51 54 55 55 58 61
35 32 28 26 25 25 24 23 22 21 22 21 21 21 19 19 17 15 14 17 17 18 19 20 22 24 28 30 34 39 44 45 46 45 45 49 50 48 48 46 49 53 53
30 27 27 26 27 26 23 21 21 22 22 21 22 20 20 20 20 17 17 18 18 19 19 20 21 24 28 31 34 36 40 44 46 47 48 48 47 47 47 45 42 43 48
28 28 27 26 26 24 24 23 23 23 23 22 22 21 21 21 20 19 18 18 15 19 18 19 20 23 28 31 34 35 39 43 44 46 47 48 49 49 49 47 45 43 43
31 28 27 26 25 23 23 23 24 25 26 25 26 26 24 22 22 21 19 18 16 16 16 18 20 23 24 28 32 37 40 42 43 46 48 49 48 50 50 50 44 46 45
36 33 32 29 28 26 25 24 25 27 29 29 27 27 26 25 24 23 22 18 16 16 16 16 18 21 23 26 31 35 38 40 43 46 47 48 50 51 50 46 49 52 51
41 42 39 35 33 33 31 29 28 27 29 29 29 27 26 27 25 20 19 17 16 14 13 16 19 22 25 28 31 35 38 40 43 44 46 49 50 51 49 46 51 53 51
45 43 43 41 37 37 38 39 36 34 31 29 28 27 25 25 22 19 16 14 14 12 15 16 20 24 28 31 34 38 39 41 42 44 46 48 49 50 48 50 55 51 50
49 46 45 45 42 39 40 39 39 35 33 31 27 25 23 22 19 18 15 12 15 15 15 17 20 24 28 31 35 38 41 42 42 43 45 48 47 47 47 57 57 53 49
52 49 45 43 41 42 40 40 39 39 37 34 29 24 22 20 15 14 12 11 13 16 16 17 19 24 28 32 35 38 41 42 43 44 45 46 45 46 53 59 57 54 49
51 47 45 43 40 39 39 37 38 38 35 30 25 22 20 19 16 14 12 13 15 16 16 17 19 24 29 32 35 37 40 42 44 44 44 44 45 48 58 58 56 53 46
49 44 39 39 38 38 37 36 35 34 32 29 27 24 21 19 19 16 14 13 13 15 16 17 21 25 28 31 34 37 39 42 44 44 43 42 43 54 59 60 56 55 49
42 38 34 32 34 34 36 35 34 33 31 28 27 21 21 22 20 16 13 12 13 13 14 18 23 26 29 30 33 36 37 41 43 42 41 41 46 58 59 57 55 58 49
33 30 28 28 27 27 27 26 25 25 24 23 20 20 17 16 15 13 12 12 10 11 16 20 24 26 28 30 33 35 38 41 42 41 40 40 51 58 59 61 62 60 59
22 21 21 21 20 19 19 18 19 19 18 18 18 18 18 18 16 13 10 9 10 14 18 21 24 27 27 28 28 30 36 39 40 40 40 42 54 58 59 60 57 54 53
11 12 12 12 12 11 11 12 13 14 15 17 18 17 16 14 12 10 9 9 13 16 19 21 23 25 28 29 30 31 32 35 36 37 39 42 54 56 56 58 56 54 51
3 4 6 5 5 6 7 7 9 11 15 16 16 14 12 11 10 9 9 11 15 18 21 23 24 26 27 28 30 33 34 37 38 40 38 46 52 54 54 55 54 53 50
4 2 1 1 2 6 7 9 11 12 13 14 13 12 11 9 8 8 10 13 16 20 23 25 26 27 27 29 32 34 35 38 40 42 43 47 51 52 52 53 53 51 49
Wind_Direction
265 265 265 263 261 262 264 267 267 269 268 268 266 263 265 269 273 279 284 289 294 299 303 304 306 307 306 307 308 309 309 308 305 303 310 311 311 311 311 311 310 309 307
266 265 266 268 265 263 264 264 265 265 265 264 264 263 266 270 273 276 281 287 291 296 299 302 304 306 306 308 308 308 308 309 307 304 307 310 310 312 311 310 310 308 307
270 269 268 265 263 261 263 264 264 264 263 264 260 260 263 266 269 275 280 285 290 295 298 301 304 306 306 308 308 308 309 310 309 308 306 310 311 313 312 311 310 309 309
272 267 264 262 261 263 264 262 260 260 262 261 258 259 261 264 267 272 278 284 289 293 297 299 302 304 306 307 309 309 310 310 310 309 309 309 311 313 312 311 309 311 309
270 266 264 265 267 265 262 260 257 256 257 254 255 258 260 262 267 270 277 282 287 293 299 303 305 307 308 309 311 310 311 311 312 311 310 310 311 312 312 313 310 311 310
270 267 267 266 266 265 264 261 258 257 255 254 254 255 258 264 265 268 275 282 288 294 299 304 308 309 310 311 312 313 312 313 312 311 311 311 311 313 313 313 311 311 309
273 272 267 265 266 265 264 260 258 255 254 253 254 254 256 263 263 267 273 282 288 296 302 307 309 312 314 315 316 315 314 314 312 313 312 313 313 314 314 313 311 309 308
275 273 271 268 267 264 261 259 258 253 249 248 250 251 255 260 259 261 263 280 291 300 307 310 313 314 316 317 317 317 316 316 315 314 313 314 314 315 314 313 312 309 309
279 277 274 269 267 263 260 257 256 252 250 249 248 248 251 256 249 250 261 281 293 302 310 314 316 316 318 319 320 320 319 319 319 318 316 316 316 316 315 314 313 312 310
287 283 278 273 269 264 261 258 256 251 252 254 257 258 258 258 251 252 264 282 293 303 309 313 316 319 322 323 322 322 320 321 322 322 322 320 319 321 320 317 316 313 312
295 288 281 278 274 270 267 263 258 256 256 256 257 261 262 260 261 258 267 281 291 299 304 311 316 321 323 325 326 325 323 324 324 324 324 324 324 324 324 322 317 314 311
296 291 283 281 276 272 268 266 261 257 255 254 254 257 261 260 259 262 264 278 286 296 302 312 319 323 325 328 329 328 327 327 328 328 327 328 328 327 327 326 321 315 310
289 288 285 281 277 272 267 264 261 259 258 256 256 257 259 262 262 261 265 272 281 295 307 316 320 325 330 332 332 330 330 330 331 330 329 330 330 329 328 326 324 319 314
287 284 282 278 274 272 269 266 264 261 261 260 255 257 259 261 262 268 272 275 284 296 309 320 326 328 334 335 334 333 334 333 333 332 331 332 332 332 331 329 327 323 319
284 281 278 276 273 270 267 264 264 263 258 257 257 255 257 259 263 265 273 277 285 296 311 322 326 330 332 336 335 334 335 336 336 335 335 334 334 334 333 332 328 325 321
280 279 276 273 271 270 269 271 269 268 263 264 265 259 263 266 258 263 266 271 279 295 312 319 325 328 331 334 335 335 337 338 338 339 338 337 336 336 335 333 329 328 325
279 277 276 273 269 269 269 266 265 268 266 262 259 255 253 258 251 261 261 265 273 294 303 314 323 326 331 334 335 335 335 339 341 341 341 340 339 338 338 333 331 332 329
278 277 274 273 271 268 268 265 265 263 260 261 259 254 249 243 246 244 251 260 270 292 302 315 322 327 329 332 334 336 338 341 342 343 343 343 343 342 339 334 335 335 332
277 276 273 273 271 268 267 267 265 262 259 256 253 250 242 234 236 235 235 258 268 284 300 312 323 326 328 331 335 338 340 341 343 343 345 345 346 345 337 337 339 339 336
278 276 272 271 268 265 266 266 263 258 253 252 249 245 235 229 237 233 245 253 267 286 300 311 320 324 328 332 336 339 341 343 345 346 345 346 346 343 337 338 342 341 341
276 274 270 268 266 265 264 263 260 255 253 250 250 234 226 233 229 234 235 248 269 287 302 315 319 323 328 335 338 341 343 345 346 347 347 346 346 338 338 341 344 340 344
273 268 264 266 267 264 261 259 253 249 247 244 232 219 213 216 217 223 236 255 272 292 307 313 316 322 329 335 338 342 344 345 347 348 348 347 344 335 335 336 331 324 329
268 262 263 266 266 261 254 252 244 240 234 219 208 208 217 218 227 232 241 256 281 299 307 312 316 323 332 338 343 345 343 345 347 348 347 347 340 330 330 331 322 320 319
259 255 257 263 260 247 241 239 235 222 207 201 200 206 208 211 216 228 244 275 293 302 308 313 320 326 331 337 342 345 346 347 349 349 348 348 338 325 325 327 324 321 319
281 265 263 236 209 193 195 204 201 185 193 197 202 200 198 205 218 242 270 291 300 305 309 316 322 327 332 337 340 342 344 346 348 349 350 346 338 324 324 326 324 323 322
338 324 276 181 182 153 156 159 173 162 163 177 183 189 196 212 238 266 288 298 305 309 312 318 323 327 332 336 338 341 343 345 347 348 348 344 339 327 324 325 325 326 324